SCP
0 -0 -0 -0 -0 -0 -0 -0 -0 -0 -0 -0 -0 -0 -0 -0 -0 -0 -0 -0 -0 -0 -0 -0 -0 -0 -0 -0 -0 0 0 0 0 0 0 0 0 0 0 0 0 0 0
0 0 -0 -0 -0 -0 -0 -0 -0 -0 -0 -0 -0 -0 -0 -0 -0 -0 -0 -0 -0 -0 -0 -0 -0 -0 -0 0 0 0 0 0 0 0 0 0 0 0 0 0 0 0 0
0 0 -0 -0 -0 -0 -0 -0 -0 -0 -0 -0 -0 -0 -0 -0 -0 -0 -0 -0 -0 -0 -0 -0 -0 0 0 0 0 0 0 0 0 0 0 0 0 0 0 0 0 0 0
-0 0 0 -0 -0 -0 -0 -0 -0 -0 -0 -0 -0 -0 -0 -0 -0 -0 -0 -0 -0 -0 -0 0 0 0 0 0 0 0 0 -0 0 0 0 0 0 0 0 0 0 0 0
0 0 0 -0 -0 -0 -0 -0 0 -0 -0 -0 -0 -0 -0 -0 -0 -0 -0 0 -0 0 0 0 0 0 0 0 0 0 0 -0 -0 0 0 0 0 0 0 0 0 0 0
0 0 0 0 -0 0 0 0 0 0 0 0 -0 -0 -0 -0 -0 -0 -0 0 0 0 0 0 0 0 0 0 0 -0 -0 -0 -0 0 0 0 0 0 0 0 0 0 0
0 0 1 0 0 0 0 0 0 0 0 0 0 0 0 0 0 0 0 0 0 0 0 0 0 0 0 -0 -0 -0 0 0 0 0 0 0 0 0 1 1 0 0 0
0 1 1 1 1 1 0 0 0 0 0 0 0 0 0 0 0 0 0 0 0 0 0 0 0 0 -0 -0 -0 -0 0 0 0 0 0 0 0 1 1 0 0 1 1
1 1 1 1 1 1 1 0 0 0 0 0 0 0 0 0 0 0 0 0 0 0 0 0 0 0 0 -0 -0 -0 0 0 0 0 0 0 0 0 1 1 1 1 1
1 1 1 1 2 2 1 1 1 0 0 0 0 0 0 0 0 0 0 0 0 0 0 0 0 0 0 -0 -0 0 0 0 0 0 0 0 1 1 1 1 0 0 0
1 1 2 1 2 2 2 1 1 1 0 0 0 0 0 0 0 0 0 0 0 0 0 0 -0 0 0 -0 0 0 0 0 0 0 0 1 1 0 0 0 0 0 0
2 1 1 1 1 2 2 2 1 1 1 1 0 0 0 0 0 0 0 0 0 0 0 0 -0 -0 0 0 0 0 0 0 0 0 0 1 1 0 0 0 0 0 0
2 2 1 1 1 1 2 2 2 2 1 0 0 0 0 0 0 0 0 0 0 0 0 0 -0 0 0 0 0 0 0 0 0 0 0 1 1 0 0 0 0 0 0
1 1 1 0 0 0 2 2 1 1 1 0 0 0 0 0 0 0 0 0 0 0 0 0 0 0 0 0 0 0 0 0 0 0 0 0 0 0 0 0 0 0 0
1 2 1 1 0 0 1 1 1 1 1 1 1 0 0 0 0 0 0 0 0 0 0 0 -0 0 0 0 0 0 0 0 0 0 0 0 0 0 0 0 0 0 0
0 1 2 1 1 1 1 0 0 0 1 0 0 0 0 0 0 0 0 0 0 0 0 0 0 0 0 0 0 0 0 0 0 0 0 0 0 0 0 0 0 0 0
0 0 2 2 2 2 1 0 0 0 0 0 0 0 0 0 0 0 0 0 0 0 0 0 0 0 0 0 0 0 0 0 0 0 0 0 0 0 0 0 0 0 0
0 0 0 3 2 2 2 1 1 1 0 0 0 0 0 0 0 0 0 0 0 0 0 0 0 0 0 0 0 0 0 0 0 0 0 0 0 0 0 0 0 0 0
0 0 0 2 3 2 2 2 2 2 2 0 0 0 0 0 0 0 0 0 0 0 0 0 0 0 0 0 0 0 0 0 0 0 0 0 0 0 0 0 0 0 0
0 0 0 0 2 2 3 2 1 1 1 1 1 1 0 0 0 0 0 0 0 0 0 0 0 0 0 0 0 0 0 0 0 0 0 0 0 0 0 0 0 0 0
0 0 0 0 0 2 2 4 2 1 1 1 1 0 0 1 0 0 0 0 0 0 0 0 0 0 0 0 0 0 0 0 0 0 0 0 0 0 0 0 0 0 0
0 0 0 0 0 0 0 2 2 1 0 0 0 0 0 0 0 1 0 0 0 0 0 0 0 0 0 0 0 0 0 0 0 0 0 0 0 0 0 0 0 0 0
0 0 0 0 0 0 1 2 2 1 0 0 0 0 0 0 0 0 0 0 1 0 0 1 0 0 0 0 0 0 0 0 0 0 0 0 0 0 0 0 0 0 0
0 0 0 0 0 0 0 0 1 0 0 0 1 0 0 1 0 0 0 0 1 1 1 1 0 0 0 0 0 0 0 0 0 0 0 0 0 0 0 0 0 0 0
0 0 0 0 0 0 0 0 0 0 0 0 1 0 0 0 1 0 1 0 0 0 0 0 0 0 0 0 0 0 0 0 0 0 0 0 0 0 0 0 0 0 0
0 0 0 0 0 0 0 0 0 0 0 0 1 0 0 1 1 1 1 0 0 0 0 0 0 0 0 0 0 0 0 0 0 0 0 0 0 0 0 0 0 0 0
Wind_Speed_500mb
20 45 46 38 34 34 31 32 31 28 21 19 20 22 26 29 30 28 26 28 28 29 32 33 28 24 20 14 13 9 7 6 6 9 14 16 16 13 8 12 18 22 20
10 44 48 39 34 31 28 28 30 31 26 21 21 22 25 29 31 32 31 29 29 30 31 30 25 20 14 12 11 9 6 5 7 10 14 17 10 8 8 13 20 25 23
10 41 48 41 36 33 31 29 29 31 28 23 21 22 24 28 31 32 30 28 28 28 27 25 21 18 14 11 9 8 9 10 12 15 15 9 8 4 5 11 17 25 26
9 27 46 42 37 35 31 27 26 27 26 23 21 20 22 25 28 30 29 28 26 25 24 21 19 17 14 9 8 8 8 9 12 17 17 9 3 7 4 12 20 24 29
10 19 44 43 37 36 33 30 29 28 27 25 21 19 21 23 25 27 28 27 25 23 21 17 15 14 10 6 6 6 6 5 7 14 15 6 1 3 5 9 21 27 30
11 11 39 42 37 35 34 31 29 28 27 26 24 21 21 23 24 25 26 26 24 21 17 16 14 10 7 5 3 3 4 4 3 10 18 14 5 3 9 15 21 27 31
10 11 28 41 35 35 34 33 30 28 26 26 26 23 22 24 25 26 26 27 25 20 16 13 11 10 7 5 3 4 5 2 1 6 13 22 14 10 8 18 20 25 28
11 16 20 39 35 35 34 33 31 29 27 26 28 26 26 26 26 26 24 25 24 19 16 14 12 11 8 5 4 3 3 4 3 5 11 12 12 14 16 23 20 23 30
13 19 12 23 38 36 36 34 33 30 28 26 27 26 27 27 27 26 25 25 25 22 18 14 12 10 8 7 7 7 7 10 8 4 7 10 12 11 15 16 21 28 34
13 16 16 14 27 41 40 38 36 33 30 28 29 29 29 29 29 28 27 26 26 24 20 16 13 11 10 14 16 16 10 10 6 6 7 11 10 10 13 19 27 35 36
17 11 13 16 18 36 43 43 42 38 35 32 33 32 33 34 34 32 30 28 28 26 22 18 16 12 13 22 22 19 8 5 5 8 11 8 10 10 17 24 32 38 37
19 19 21 20 23 27 41 49 47 45 42 39 38 37 36 35 34 33 32 30 30 28 24 21 18 15 17 26 23 21 8 6 11 7 3 7 12 14 21 30 36 37 31
17 25 19 22 27 31 34 54 53 49 45 43 41 40 38 38 38 38 38 37 36 33 28 24 19 18 22 21 22 20 9 10 10 8 8 12 13 22 31 35 34 29 27
6 22 24 25 28 32 36 47 52 51 50 47 45 44 43 44 43 43 43 39 37 35 29 27 24 22 20 13 20 18 9 8 10 10 14 16 22 29 34 33 30 32 36
17 25 31 25 18 31 33 37 47 46 52 50 49 48 47 48 47 43 39 36 32 32 30 28 27 23 21 9 13 19 15 18 15 18 18 24 29 28 39 33 32 37 38
48 30 34 33 27 26 36 42 42 47 46 46 52 52 51 51 50 49 38 36 27 19 30 26 22 21 19 11 15 16 26 22 23 20 20 26 31 36 35 32 28 35 39
48 31 35 42 37 35 32 39 59 50 55 56 50 50 56 54 55 53 44 38 34 25 27 28 29 27 26 20 20 20 18 21 27 18 18 24 32 30 32 24 31 39 42
44 41 30 34 41 42 37 40 50 62 59 59 53 44 45 54 57 56 51 45 39 32 35 29 31 29 26 27 28 29 25 22 22 22 27 23 21 27 23 26 31 37 39
56 49 44 44 48 49 49 43 44 59 61 55 58 62 51 51 48 59 55 50 45 44 41 40 36 35 36 33 26 29 28 25 22 25 23 20 22 21 23 24 31 33 35
53 53 56 42 39 46 49 51 41 46 57 71 63 61 73 63 56 53 58 55 52 54 54 47 48 48 40 30 31 30 25 23 26 20 16 19 17 19 19 22 22 29 30
66 62 62 56 52 43 51 55 52 50 51 59 81 77 63 80 74 70 59 61 57 61 55 54 44 43 46 45 41 35 33 25 21 15 17 18 16 13 16 20 23 22 15
68 69 67 57 51 46 52 57 50 48 56 56 62 69 93 89 73 74 78 66 64 64 61 55 53 51 53 46 38 31 19 17 19 17 17 11 11 9 11 15 16 15 19
70 64 61 57 55 46 54 58 46 44 53 58 60 60 57 77 84 67 84 80 71 69 64 63 60 56 60 50 43 28 16 14 22 15 15 13 15 15 14 17 15 15 15
66 62 59 57 52 40 49 48 39 42 51 46 49 54 45 52 63 87 74 93 64 71 61 62 60 54 61 56 44 37 30 21 18 18 17 3 7 5 7 7 9 11 20
35 55 54 53 43 40 46 42 41 41 35 28 33 38 41 53 51 57 93 77 49 59 56 57 61 64 57 49 46 40 33 30 20 17 17 15 10 10 8 4 9 20 30
19 46 45 45 43 40 42 41 43 44 36 29 32 35 36 38 41 52 64 62 69 54 58 60 67 64 51 45 45 38 34 26 23 23 18 18 22 18 3 7 14 21 29
Wind_Direction_500mb
168 171 163 163 160 156 153 150 149 145 140 129 130 140 146 151 151 151 153 151 150 147 143 142 135 130 126 130 149 147 129 108 94 101 109 110 99 88 85 49 25 18 14
145 170 164 165 160 158 157 153 152 149 146 138 132 140 148 151 151 150 152 152 152 149 146 145 144 142 131 122 134 140 151 150 140 139 135 118 96 72 27 21 19 6 357
120 170 167 168 163 163 159 156 156 153 150 144 140 143 152 155 153 153 155 157 154 150 150 152 158 161 151 139 142 149 154 158 158 154 145 127 35 325 329 349 2 359 352
144 171 173 172 168 168 161 156 158 157 153 150 149 148 157 160 159 158 159 158 156 157 158 162 172 173 164 156 145 138 140 148 158 163 151 149 38 23 277 307 340 345 339
105 161 180 179 175 173 165 161 162 164 161 159 160 159 162 167 167 164 162 160 162 165 163 165 166 161 168 162 133 125 129 135 158 180 195 190 318 31 323 273 320 325 326
86 140 187 186 184 180 173 168 169 169 167 165 168 170 170 173 174 172 167 166 167 168 167 168 167 170 180 166 138 115 103 103 162 192 197 204 224 333 266 282 300 316 320
151 128 184 194 194 189 183 176 176 176 175 174 175 176 178 181 180 180 177 175 176 174 169 173 177 176 172 164 137 93 74 94 215 219 220 229 246 261 241 264 291 310 317
178 170 171 196 204 201 194 187 183 185 184 183 185 184 185 187 188 188 185 185 184 179 176 173 172 175 173 143 99 101 125 147 134 220 226 217 238 271 275 273 288 301 307
181 173 180 198 206 208 206 198 194 194 193 192 194 194 194 194 195 196 195 194 191 186 188 191 190 182 162 131 132 144 152 152 122 100 177 233 265 295 274 277 295 304 303
170 177 186 215 222 215 211 207 205 203 202 202 201 202 201 201 201 203 204 203 199 195 197 202 204 190 170 142 129 131 134 136 166 242 269 279 317 281 276 297 303 304 307
173 204 236 224 232 230 218 214 211 211 211 210 209 209 209 207 204 207 208 209 207 205 206 208 209 199 181 163 144 135 148 138 238 259 291 265 285 277 297 301 310 315 313
219 223 248 250 252 235 234 224 219 218 217 217 216 215 215 214 212 212 213 212 214 212 212 215 214 201 185 170 172 156 195 264 277 274 140 232 250 287 303 314 321 320 314
248 232 238 260 250 237 250 230 222 223 224 225 224 223 221 219 214 214 215 215 215 213 214 216 209 193 182 188 178 174 228 260 243 190 186 242 281 306 313 320 323 321 326
278 227 240 253 256 251 241 232 228 229 231 231 232 229 224 223 220 218 218 220 222 220 216 211 193 183 185 205 198 196 220 261 235 223 248 282 309 321 320 316 318 329 331
258 239 247 230 242 244 241 228 231 235 238 239 238 236 230 229 225 222 219 219 220 224 218 213 196 197 202 194 183 204 241 259 267 276 295 312 317 318 314 305 326 338 334
277 241 244 248 248 238 248 246 243 244 244 244 242 244 240 235 230 228 220 216 206 207 196 189 197 206 210 222 216 245 252 254 276 286 306 311 308 307 306 309 326 340 336
273 251 239 243 247 233 253 262 244 247 247 246 248 245 244 240 234 231 227 225 215 205 202 219 221 217 218 229 234 225 238 269 289 273 296 288 289 300 309 308 326 331 331
264 261 242 247 250 257 265 267 262 245 247 243 242 243 245 241 237 233 232 233 228 222 229 229 228 221 224 240 234 235 234 255 255 269 282 281 287 298 297 306 314 322 323
257 258 263 250 247 254 256 265 264 252 244 243 245 245 242 237 240 235 236 241 245 237 234 223 221 225 221 230 238 228 250 249 252 280 290 288 291 292 297 295 315 318 320
250 253 252 254 243 246 251 248 254 250 250 241 242 245 243 234 236 236 241 234 238 231 234 233 239 246 233 232 231 236 246 246 263 275 285 281 285 290 290 301 317 309 309
242 241 242 247 250 246 247 243 253 263 264 256 247 242 240 241 232 231 242 236 234 234 235 234 232 216 230 226 235 242 257 259 237 241 261 269 274 268 297 314 314 303 294
244 244 240 240 245 248 249 243 250 269 279 270 265 260 252 236 242 232 233 237 231 233 230 230 223 231 226 226 232 237 227 196 209 234 231 216 219 239 280 276 278 274 284
240 234 230 232 232 240 238 239 250 274 285 283 270 271 265 249 245 237 234 243 232 231 230 233 228 232 234 227 231 227 194 191 177 186 199 221 235 256 244 255 273 293 291
256 233 226 223 228 238 232 236 254 279 287 284 279 274 285 276 266 245 245 249 231 228 229 228 234 233 231 233 231 223 222 197 180 178 192 200 277 247 195 248 289 310 316
243 225 219 220 229 239 228 248 261 267 292 297 294 286 277 280 281 257 226 215 222 234 233 234 233 237 240 240 230 225 207 204 212 205 185 164 122 110 93 81 331 325 322
209 208 216 225 228 235 242 255 258 265 282 304 315 302 291 279 271 248 215 223 213 223 240 236 237 239 236 231 229 221 219 215 232 226 198 179 147 129 137 354 334 323 326
Wind_Speed_850mb
20 45 46 38 34 34 31 32 31 28 21 19 20 22 26 29 30 28 26 28 28 29 32 33 28 24 20 14 13 9 7 6 6 9 14 16 16 13 8 12 18 22 20
10 44 48 39 34 31 28 28 30 31 26 21 21 22 25 29 31 32 31 29 29 30 31 30 25 20 14 12 11 9 6 5 7 10 14 17 10 8 8 13 20 25 23
10 41 48 41 36 33 31 29 29 31 28 23 21 22 24 28 31 32 30 28 28 28 27 25 21 18 14 11 9 8 9 10 12 15 15 9 8 4 5 11 17 25 26
9 27 46 42 37 35 31 27 26 27 26 23 21 20 22 25 28 30 29 28 26 25 24 21 19 17 14 9 8 8 8 9 12 17 17 9 3 7 4 12 20 24 29
10 19 44 43 37 36 33 30 29 28 27 25 21 19 21 23 25 27 28 27 25 23 21 17 15 14 10 6 6 6 6 5 7 14 15 6 1 3 5 9 21 27 30
11 11 39 42 37 35 34 31 29 28 27 26 24 21 21 23 24 25 26 26 24 21 17 16 14 10 7 5 3 3 4 4 3 10 18 14 5 3 9 15 21 27 31
10 11 28 41 35 35 34 33 30 28 26 26 26 23 22 24 25 26 26 27 25 20 16 13 11 10 7 5 3 4 5 2 1 6 13 22 14 10 8 18 20 25 28
11 16 20 39 35 35 34 33 31 29 27 26 28 26 26 26 26 26 24 25 24 19 16 14 12 11 8 5 4 3 3 4 3 5 11 12 12 14 16 23 20 23 30
13 19 12 23 38 36 36 34 33 30 28 26 27 26 27 27 27 26 25 25 25 22 18 14 12 10 8 7 7 7 7 10 8 4 7 10 12 11 15 16 21 28 34
13 16 16 14 27 41 40 38 36 33 30 28 29 29 29 29 29 28 27 26 26 24 20 16 13 11 10 14 16 16 10 10 6 6 7 11 10 10 13 19 27 35 36
17 11 13 16 18 36 43 43 42 38 35 32 33 32 33 34 34 32 30 28 28 26 22 18 16 12 13 22 22 19 8 5 5 8 11 8 10 10 17 24 32 38 37
19 19 21 20 23 27 41 49 47 45 42 39 38 37 36 35 34 33 32 30 30 28 24 21 18 15 17 26 23 21 8 6 11 7 3 7 12 14 21 30 36 37 31
17 25 19 22 27 31 34 54 53 49 45 43 41 40 38 38 38 38 38 37 36 33 28 24 19 18 22 21 22 20 9 10 10 8 8 12 13 22 31 35 34 29 27
6 22 24 25 28 32 36 47 52 51 50 47 45 44 43 44 43 43 43 39 37 35 29 27 24 22 20 13 20 18 9 8 10 10 14 16 22 29 34 33 30 32 36
17 25 31 25 18 31 33 37 47 46 52 50 49 48 47 48 47 43 39 36 32 32 30 28 27 23 21 9 13 19 15 18 15 18 18 24 29 28 39 33 32 37 38
48 30 34 33 27 26 36 42 42 47 46 46 52 52 51 51 50 49 38 36 27 19 30 26 22 21 19 11 15 16 26 22 23 20 20 26 31 36 35 32 28 35 39
48 31 35 42 37 35 32 39 59 50 55 56 50 50 56 54 55 53 44 38 34 25 27 28 29 27 26 20 20 20 18 21 27 18 18 24 32 30 32 24 31 39 42
44 41 30 34 41 42 37 40 50 62 59 59 53 44 45 54 57 56 51 45 39 32 35 29 31 29 26 27 28 29 25 22 22 22 27 23 21 27 23 26 31 37 39
56 49 44 44 48 49 49 43 44 59 61 55 58 62 51 51 48 59 55 50 45 44 41 40 36 35 36 33 26 29 28 25 22 25 23 20 22 21 23 24 31 33 35
53 53 56 42 39 46 49 51 41 46 57 71 63 61 73 63 56 53 58 55 52 54 54 47 48 48 40 30 31 30 25 23 26 20 16 19 17 19 19 22 22 29 30
66 62 62 56 52 43 51 55 52 50 51 59 81 77 63 80 74 70 59 61 57 61 55 54 44 43 46 45 41 35 33 25 21 15 17 18 16 13 16 20 23 22 15
68 69 67 57 51 46 52 57 50 48 56 56 62 69 93 89 73 74 78 66 64 64 61 55 53 51 53 46 38 31 19 17 19 17 17 11 11 9 11 15 16 15 19
70 64 61 57 55 46 54 58 46 44 53 58 60 60 57 77 84 67 84 80 71 69 64 63 60 56 60 50 43 28 16 14 22 15 15 13 15 15 14 17 15 15 15
66 62 59 57 52 40 49 48 39 42 51 46 49 54 45 52 63 87 74 93 64 71 61 62 60 54 61 56 44 37 30 21 18 18 17 3 7 5 7 7 9 11 20
35 55 54 53 43 40 46 42 41 41 35 28 33 38 41 53 51 57 93 77 49 59 56 57 61 64 57 49 46 40 33 30 20 17 17 15 10 10 8 4 9 20 30
19 46 45 45 43 40 42 41 43 44 36 29 32 35 36 38 41 52 64 62 69 54 58 60 67 64 51 45 45 38 34 26 23 23 18 18 22 18 3 7 14 21 29
Wind_Direction_850mb
168 171 163 163 160 156 153 150 149 145 140 129 130 140 146 151 151 151 153 151 150 147 143 142 135 130 126 130 149 147 129 108 94 101 109 110 99 88 85 49 25 18 14
145 170 164 165 160 158 157 153 152 149 146 138 132 140 148 151 151 150 152 152 152 149 146 145 144 142 131 122 134 140 151 150 140 139 135 118 96 72 27 21 19 6 357
120 170 167 168 163 163 159 156 156 153 150 144 140 143 152 155 153 153 155 157 154 150 150 152 158 161 151 139 142 149 154 158 158 154 145 127 35 325 329 349 2 359 352
144 171 173 172 168 168 161 156 158 157 153 150 149 148 157 160 159 158 159 158 156 157 158 162 172 173 164 156 145 138 140 148 158 163 151 149 38 23 277 307 340 345 339
105 161 180 179 175 173 165 161 162 164 161 159 160 159 162 167 167 164 162 160 162 165 163 165 166 161 168 162 133 125 129 135 158 180 195 190 318 31 323 273 320 325 326
86 140 187 186 184 180 173 168 169 169 167 165 168 170 170 173 174 172 167 166 167 168 167 168 167 170 180 166 138 115 103 103 162 192 197 204 224 333 266 282 300 316 320
151 128 184 194 194 189 183 176 176 176 175 174 175 176 178 181 180 180 177 175 176 174 169 173 177 176 172 164 137 93 74 94 215 219 220 229 246 261 241 264 291 310 317
178 170 171 196 204 201 194 187 183 185 184 183 185 184 185 187 188 188 185 185 184 179 176 173 172 175 173 143 99 101 125 147 134 220 226 217 238 271 275 273 288 301 307
181 173 180 198 206 208 206 198 194 194 193 192 194 194 194 194 195 196 195 194 191 186 188 191 190 182 162 131 132 144 152 152 122 100 177 233 265 295 274 277 295 304 303
170 177 186 215 222 215 211 207 205 203 202 202 201 202 201 201 201 203 204 203 199 195 197 202 204 190 170 142 129 131 134 136 166 242 269 279 317 281 276 297 303 304 307
173 204 236 224 232 230 218 214 211 211 211 210 209 209 209 207 204 207 208 209 207 205 206 208 209 199 181 163 144 135 148 138 238 259 291 265 285 277 297 301 310 315 313
219 223 248 250 252 235 234 224 219 218 217 217 216 215 215 214 212 212 213 212 214 212 212 215 214 201 185 170 172 156 195 264 277 274 140 232 250 287 303 314 321 320 314
248 232 238 260 250 237 250 230 222 223 224 225 224 223 221 219 214 214 215 215 215 213 214 216 209 193 182 188 178 174 228 260 243 190 186 242 281 306 313 320 323 321 326
278 227 240 253 256 251 241 232 228 229 231 231 232 229 224 223 220 218 218 220 222 220 216 211 193 183 185 205 198 196 220 261 235 223 248 282 309 321 320 316 318 329 331
258 239 247 230 242 244 241 228 231 235 238 239 238 236 230 229 225 222 219 219 220 224 218 213 196 197 202 194 183 204 241 259 267 276 295 312 317 318 314 305 326 338 334
277 241 244 248 248 238 248 246 243 244 244 244 242 244 240 235 230 228 220 216 206 207 196 189 197 206 210 222 216 245 252 254 276 286 306 311 308 307 306 309 326 340 336
273 251 239 243 247 233 253 262 244 247 247 246 248 245 244 240 234 231 227 225 215 205 202 219 221 217 218 229 234 225 238 269 289 273 296 288 289 300 309 308 326 331 331
264 261 242 247 250 257 265 267 262 245 247 243 242 243 245 241 237 233 232 233 228 222 229 229 228 221 224 240 234 235 234 255 255 269 282 281 287 298 297 306 314 322 323
257 258 263 250 247 254 256 265 264 252 244 243 245 245 242 237 240 235 236 241 245 237 234 223 221 225 221 230 238 228 250 249 252 280 290 288 291 292 297 295 315 318 320
250 253 252 254 243 246 251 248 254 250 250 241 242 245 243 234 236 236 241 234 238 231 234 233 239 246 233 232 231 236 246 246 263 275 285 281 285 290 290 301 317 309 309
242 241 242 247 250 246 247 243 253 263 264 256 247 242 240 241 232 231 242 236 234 234 235 234 232 216 230 226 235 242 257 259 237 241 261 269 274 268 297 314 314 303 294
244 244 240 240 245 248 249 243 250 269 279 270 265 260 252 236 242 232 233 237 231 233 230 230 223 231 226 226 232 237 227 196 209 234 231 216 219 239 280 276 278 274 284
240 234 230 232 232 240 238 239 250 274 285 283 270 271 265 249 245 237 234 243 232 231 230 233 228 232 234 227 231 227 194 191 177 186 199 221 235 256 244 255 273 293 291
256 233 226 223 228 238 232 236 254 279 287 284 279 274 285 276 266 245 245 249 231 228 229 228 234 233 231 233 231 223 222 197 180 178 192 200 277 247 195 248 289 310 316
243 225 219 220 229 239 228 248 261 267 292 297 294 286 277 280 281 257 226 215 222 234 233 234 233 237 240 240 230 225 207 204 212 205 185 164 122 110 93 81 331 325 322
209 208 216 225 228 235 242 255 258 265 282 304 315 302 291 279 271 248 215 223 213 223 240 236 237 239 236 231 229 221 219 215 232 226 198 179 147 129 137 354 334 323 326